Weather History for Clarksville, TN

Change the Weather History Date:

Saturday, January 19, 2013

  Actual Average Record
Temperature  
Mean Temperature 45 °F -  
Max Temperature 58 °F - 75 °F (1951)
Min Temperature 31 °F - -15 °F (1985)
Degree Days  
Heating Degree Days 20    
Month to date heating degree days 469  
Since 1 July heating degree days 1909  
Cooling Degree Days 0    
Month to date cooling degree days 2  
Moisture  
Dew Point 28 °F    
Average Humidity 50    
Maximum Humidity 70    
Minimum Humidity 30    
Precipitation  
Precipitation 0.00 in - 2.37 in (1988)
Month to date precipitation 3.48  
Sea Level Pressure  
Sea Level Pressure 30.23 in    
Wind  
Wind Speed 11 mph (SSW)    
Max Wind Speed 21 mph    
Max Gust Speed 29 mph    
Visibility 10 miles    
Events      
T = Trace of Precipitation, MM = Missing Value Source: NWS Daily Summary

Daily Weather History Graph

Daily Weather History Graph

Search for Another Location

Airport:

Trip Planner

Search our weather history database for the weather conditions in past years. The results will help you decide how hot, cold, wet, or windy it might be!

Date:

Astronomy

Jan. 19, 2013 Rise Set
Actual Time 6:59 AM CST 5:01 PM CST
Civil Twilight 6:31 AM CST 5:29 PM CST
Nautical Twilight 5:59 AM CST 6:01 PM CST
Astronomical Twilight 5:29 AM CST 6:32 PM CST
Moon 11:26 AM CST (1/19) 12:35 AM CST (1/19)
Length of Visible Light 10h 58m
Length of Day
10h 02m
First Quarter, 57% of the Moon is Illuminated
Jan 19
First Quarter
Jan 26
Full
Feb 3
Last Quarter
Feb 10
New
Feb 17
First Quarter

Hourly Weather History & Observations

Time (CST) Temp. Windchill Dew Point Humidity Pressure Visibility Wind Dir Wind Speed Gust Speed Precip Events Conditions
12:52 AM 35.1 °F 31.0 °F 25.0 °F 67% 30.35 in 10.0 mi South 4.6 mph - N/A   Clear
1:52 AM 35.1 °F 32.2 °F 25.0 °F 67% 30.35 in 10.0 mi South 3.5 mph - N/A   Clear
2:52 AM 33.1 °F 27.7 °F 25.0 °F 72% 30.34 in 10.0 mi SE 5.8 mph - N/A   Clear
3:52 AM 33.1 °F 28.7 °F 25.0 °F 72% 30.32 in 10.0 mi SSE 4.6 mph - N/A   Clear
4:52 AM 35.1 °F 30.1 °F 26.1 °F 70% 30.31 in 10.0 mi South 5.8 mph - N/A   Clear
5:52 AM 37.9 °F 30.9 °F 27.0 °F 65% 30.31 in 10.0 mi South 10.4 mph - N/A   Clear
6:52 AM 37.0 °F 30.4 °F 27.0 °F 67% 30.31 in 10.0 mi SSW 9.2 mph - N/A   Clear
7:52 AM 37.9 °F 32.1 °F 28.9 °F 70% 30.31 in 10.0 mi South 8.1 mph - N/A   Clear
8:52 AM 43.0 °F 36.4 °F 28.9 °F 58% 30.32 in 10.0 mi SSW 12.7 mph - N/A   Clear
9:52 AM 48.0 °F - 30.0 °F 50% 30.31 in 10.0 mi SSW 13.8 mph 28.8 mph N/A   Clear
10:52 AM 51.1 °F - 30.0 °F 44% 30.29 in 10.0 mi SSW 16.1 mph 27.6 mph N/A   Clear
11:52 AM 53.1 °F - 30.0 °F 41% 30.23 in 10.0 mi SSW 18.4 mph 26.5 mph N/A   Clear
12:52 PM 55.9 °F - 28.9 °F 36% 30.18 in 10.0 mi SW 12.7 mph 23.0 mph N/A   Clear
1:52 PM 57.0 °F - 28.0 °F 33% 30.16 in 10.0 mi SSW 13.8 mph - N/A   Clear
3:52 PM 55.9 °F - 28.0 °F 34% 30.14 in 10.0 mi SSW 18.4 mph 25.3 mph N/A   Clear
4:52 PM 53.1 °F - 28.0 °F 38% 30.13 in 10.0 mi SSW 13.8 mph 21.9 mph N/A   Clear
5:52 PM 50.0 °F - 28.9 °F 44% 30.13 in 10.0 mi SSW 11.5 mph - N/A   Clear
6:52 PM 50.0 °F - 30.0 °F 46% 30.12 in 10.0 mi SSW 15.0 mph - N/A   Clear
7:52 PM 50.0 °F - 30.0 °F 46% 30.13 in 10.0 mi SSW 8.1 mph - N/A   Clear
8:52 PM 48.0 °F - 30.0 °F 50% 30.15 in 10.0 mi SW 8.1 mph - N/A   Clear
9:52 PM 48.0 °F - 30.9 °F 52% 30.16 in 10.0 mi SW 11.5 mph - N/A   Clear
10:52 PM 48.0 °F - 30.0 °F 50% 30.15 in 10.0 mi SW 9.2 mph - N/A   Clear
11:52 PM 46.9 °F - 28.9 °F 50% 30.14 in 10.0 mi SW 10.4 mph 18.4 mph N/A   Clear